Weather History for Springfield, MO

Change the Weather History Date:

Saturday, December 8, 2012

  Actual Average Record
Temperature  
Mean Temperature 49 °F 36 °F  
Max Temperature 51 °F 47 °F 77 °F (1991)
Min Temperature 46 °F 26 °F -9 °F (1917)
Degree Days  
Heating Degree Days 16 29  
Month to date heating degree days 85 219  
Since 1 July heating degree days 1002 1098  
Cooling Degree Days 0 0  
Month to date cooling degree days 2 0  
Year to date cooling degree days 1766 1389  
Moisture  
Dew Point 46 °F    
Average Humidity 93    
Maximum Humidity 100    
Minimum Humidity 82    
Precipitation  
Precipitation T in 0.11 in 1.33 in (1901)
Month to date precipitation 0.77 0.92  
Year to date precipitation 30.61 43.45  
Snow  
Snow 0.00 in - - ()
Month to date snowfall 0.0  
Since 1 July snowfall 0.0  
Snow Depth 0.00 in    
Sea Level Pressure  
Sea Level Pressure 29.89 in    
Wind  
Wind Speed 8 mph (NE)    
Max Wind Speed 14 mph    
Max Gust Speed 16 mph    
Visibility 4 miles    
Events Fog    
T = Trace of Precipitation, MM = Missing Value Source: NWS Daily Summary

Daily Weather History Graph

Daily Weather History Graph

Search for Another Location

Airport:

Trip Planner

Search our weather history database for the weather conditions in past years. The results will help you decide how hot, cold, wet, or windy it might be!

Date:

Astronomy

Dec. 08, 2012 Rise Set
Actual Time 7:15 AM CST 4:56 PM CST
Civil Twilight 6:46 AM CST 5:24 PM CST
Nautical Twilight 6:13 AM CST 5:57 PM CST
Astronomical Twilight 5:42 AM CST 6:29 PM CST
Moon 1:46 AM CST (12/8) 1:21 PM CST (12/8)
Length of Visible Light 10h 38m
Length of Day
9h 40m
Waning Crescent, 28% of the Moon is Illuminated
Dec 8
Waning Crescent
Dec 13
New
Dec 19
First Quarter
Dec 28
Full
Jan 4
Last Quarter

Hourly Weather History & Observations

Time (CST) Temp. Windchill Dew Point Humidity Pressure Visibility Wind Dir Wind Speed Gust Speed Precip Events Conditions
12:52 AM 48.0 °F - 46.9 °F 96% 29.88 in 3.0 mi North 8.1 mph - N/A   Overcast
1:31 AM 48.2 °F - 46.4 °F 93% 29.88 in 3.0 mi NNE 8.1 mph - N/A   Overcast
1:52 AM 48.0 °F - 46.9 °F 96% 29.88 in 3.0 mi NNE 6.9 mph - N/A   Overcast
2:52 AM 48.0 °F - 46.9 °F 96% 29.89 in 3.0 mi North 5.8 mph - N/A   Overcast
3:34 AM 48.2 °F - 46.4 °F 93% 29.89 in 3.0 mi NNE 5.8 mph - N/A   Overcast
3:50 AM 48.2 °F - 46.4 °F 93% 29.89 in 3.0 mi NNE 4.6 mph - N/A   Overcast
3:52 AM 48.0 °F - 46.9 °F 96% 29.89 in 3.0 mi NNE 4.6 mph - N/A   Overcast
4:16 AM 48.2 °F - 46.4 °F 93% 29.89 in 3.0 mi North 8.1 mph - N/A   Overcast
4:24 AM 48.2 °F - 46.4 °F 93% 29.89 in 2.5 mi North 5.8 mph - N/A   Overcast
4:52 AM 48.0 °F - 46.9 °F 96% 29.91 in 2.0 mi North 9.2 mph - N/A   Overcast
5:24 AM 46.4 °F 41.9 °F 46.4 °F 100% 29.91 in 1.5 mi North 9.2 mph - N/A   Overcast
5:52 AM 46.9 °F - 46.0 °F 97% 29.92 in 1.0 mi NNE 6.9 mph - N/A   Overcast
6:05 AM 46.4 °F 41.9 °F 46.4 °F 100% 29.92 in 3.0 mi North 9.2 mph - N/A   Overcast
6:22 AM 46.4 °F 40.7 °F 46.4 °F 100% 29.92 in 2.5 mi North 12.7 mph - N/A   Overcast
6:33 AM 46.4 °F 41.9 °F 46.4 °F 100% 29.93 in 1.8 mi North 9.2 mph - N/A   Overcast
6:52 AM 46.9 °F - 46.0 °F 97% 29.94 in 2.0 mi North 10.4 mph - N/A   Overcast
6:59 AM 46.4 °F 43.5 °F 44.6 °F 93% 29.93 in 1.2 mi North 5.8 mph - N/A   Overcast
7:18 AM 46.4 °F 42.9 °F 44.6 °F 93% 29.94 in 2.0 mi North 6.9 mph - N/A   Overcast
7:28 AM 46.4 °F 41.9 °F 44.6 °F 93% 29.93 in 0.8 mi North 9.2 mph - N/A   Overcast
7:52 AM 46.0 °F 42.5 °F 45.0 °F 96% 29.94 in 0.5 mi NE 6.9 mph - N/A Fog Fog
8:07 AM 46.4 °F 41.9 °F 44.6 °F 93% 29.94 in 2.0 mi NE 9.2 mph - N/A   Overcast
8:12 AM 46.4 °F 42.4 °F 44.6 °F 93% 29.93 in 5.0 mi NE 8.1 mph - N/A   Overcast
8:52 AM 46.0 °F 42.5 °F 44.1 °F 93% 29.95 in 4.0 mi NNE 6.9 mph - N/A   Overcast
9:21 AM 46.4 °F 42.4 °F 44.6 °F 93% 29.94 in 3.0 mi ENE 8.1 mph - N/A   Overcast
9:33 AM 46.4 °F 43.5 °F 44.6 °F 93% 29.95 in 1.8 mi NNE 5.8 mph - N/A   Overcast
9:52 AM 46.0 °F 42.5 °F 45.0 °F 96% 29.96 in 2.0 mi NNE 6.9 mph - N/A   Overcast
10:34 AM 46.4 °F 42.4 °F 44.6 °F 93% 29.94 in 3.0 mi NE 8.1 mph - N/A   Overcast
10:52 AM 46.9 °F - 45.0 °F 93% 29.94 in 3.0 mi NE 8.1 mph - N/A   Overcast
11:52 AM 46.9 °F - 45.0 °F 93% 29.92 in 4.0 mi ENE 6.9 mph - N/A   Overcast
12:52 PM 48.0 °F - 46.0 °F 93% 29.90 in 4.0 mi NE 5.8 mph - N/A   Overcast
1:02 PM 48.2 °F - 46.4 °F 93% 29.89 in 4.0 mi NE 4.6 mph - N/A   Overcast
1:44 PM 46.4 °F 42.4 °F 44.6 °F 93% 29.89 in 3.0 mi ENE 8.1 mph - N/A   Overcast
1:52 PM 46.9 °F - 45.0 °F 93% 29.89 in 3.0 mi ENE 8.1 mph - N/A   Overcast
2:30 PM 48.2 °F - 44.6 °F 87% 29.87 in 5.0 mi ENE 5.8 mph - N/A   Overcast
2:52 PM 48.0 °F - 45.0 °F 89% 29.88 in 5.0 mi ENE 6.9 mph - N/A   Overcast
3:52 PM 46.9 °F - 45.0 °F 93% 29.87 in 4.0 mi ENE 10.4 mph - N/A   Overcast
4:45 PM 46.4 °F 41.1 °F 44.6 °F 93% 29.86 in 4.0 mi ENE 11.5 mph - N/A   Overcast
4:52 PM 46.9 °F - 45.0 °F 93% 29.86 in 5.0 mi ENE 10.4 mph - N/A   Overcast
5:16 PM 46.4 °F 41.5 °F 44.6 °F 93% 29.86 in 6.0 mi ENE 10.4 mph - N/A   Overcast
5:52 PM 46.4 °F 41.9 °F 44.6 °F 93% 29.85 in 5.0 mi East 9.2 mph - N/A   Overcast
6:52 PM 46.9 °F - 45.0 °F 93% 29.86 in 5.0 mi ENE 9.2 mph - N/A   Overcast
7:52 PM 46.9 °F - 45.0 °F 93% 29.86 in 5.0 mi ENE 8.1 mph - N/A   Overcast
8:08 PM 48.2 °F - 46.4 °F 93% 29.84 in 5.0 mi East 5.8 mph - N/A   Overcast
8:41 PM 48.2 °F - 46.4 °F 93% 29.84 in 7.0 mi ESE 6.9 mph - N/A   Overcast
8:52 PM 48.9 °F - 46.0 °F 90% 29.84 in 8.0 mi ESE 5.8 mph - N/A   Overcast
9:01 PM 48.2 °F - 46.4 °F 93% 29.83 in 8.0 mi SE 6.9 mph - N/A   Overcast
9:22 PM 50.0 °F - 46.4 °F 87% 29.83 in 9.0 mi SE 11.5 mph - N/A   Overcast
9:52 PM 50.0 °F - 46.9 °F 89% 29.83 in 9.0 mi SE 10.4 mph - N/A   Overcast
10:25 PM 51.8 °F - 46.4 °F 82% 29.83 in 10.0 mi SSE 11.5 mph - 0.00 in   Overcast
10:52 PM 51.8 °F - 48.2 °F 88% 29.83 in 10.0 mi SE 11.5 mph - N/A   Overcast
11:52 PM 51.1 °F - 48.0 °F 89% 29.82 in 9.0 mi SSE 6.9 mph - N/A   Overcast